Flag for Germany Weather past 2 weeks in Achern, Baden-Württemberg, Germany

Now
32 °F

Passing clouds.


Feels Like: 29 °F
Forecast: 33 / 40 °F
Wind: 3 mph from Southwest

Location: Karlsruhe - Baden Wurttemberg

Current Time: Dec 26, 2014 at 11:08:35 PM

Latest Report: Dec 26, 2014 at 10:20 PM


Visibility: N/A

Pressure: 30.24 "Hg

Humidity: 93%

Dew point: 30 °F

Location of AchernLocation

Historic Weather in Achern — Graph

°F

Achern temperature yesterday

Maximum temperature yesterday: 45 °F (at 12:50 PM)
Minimum temperature yesterday: 37 °F (at 8:20 AM)
Average temperature yesterday: 41 °F

Past Weeks' High & Low Weather Summary

 TemperatureHumidityPressure
High54 °F (Dec 18, 5:50 PM)100% (Dec 14, 3:20 PM)30.54 "Hg (Dec 14, 3:20 PM)
Low30 °F (Dec 23, 10:20 PM)50% (Dec 15, 2:50 PM)29.71 "Hg (Dec 12, 4:20 PM)
Average44 °F78%30.13 "Hg
* Reported Dec 11 9:20 PM — Dec 26 9:20 PM, Achern, Weather by CustomWeather, © 2014

Note: Actual official high and low records may vary slightly from our data, if they occured in-between our weather recording intervals... More about our weather records

Advertising

Achern weather history for previous 24 hours

 ConditionsComfort  
Time TempWeatherWind HumidityBarometerVisibility
9:20 PM
Dec 26
34 °FClear.6 mph87%30.30 "Hg10 mi
8:50 PM34 °FClear.6 mph87%30.30 "Hg10 mi
8:20 PM36 °FClear.6 mph87%30.33 "Hg10 mi
7:50 PM36 °FClear.7 mph87%30.33 "Hg10 mi
7:20 PM37 °FClear.7 mph81%30.33 "Hg10 mi
6:50 PM36 °FClear.5 mph87%30.36 "Hg10 mi
6:20 PM37 °FClear.5 mph81%30.36 "Hg10 mi
5:50 PM37 °FClear.5 mph81%30.36 "Hg10 mi
5:20 PM39 °FPassing clouds.6 mph75%30.36 "HgN/A
4:50 PM37 °FPassing clouds.6 mph81%30.36 "Hg6 mi
4:20 PM39 °FPartly sunny.3 mph75%30.39 "HgN/A
3:50 PM39 °FBroken clouds.5 mph75%30.39 "HgN/A
3:20 PM41 °FBroken clouds.5 mph76%30.39 "HgN/A
2:50 PM41 °FPartly sunny.5 mph70%30.39 "HgN/A
2:20 PM41 °FBroken clouds.3 mph76%30.39 "HgN/A
1:50 PM39 °FScattered clouds.5 mph81%30.39 "HgN/A
1:20 PM39 °FBroken clouds.3 mph81%30.39 "HgN/A
12:51 PM39 °FDrizzle. Broken clouds.5 mph81%30.42 "HgN/A
12:20 PM39 °FBroken clouds.7 mph81%30.42 "HgN/A
11:50 AM39 °FBroken clouds.7 mph81%30.42 "HgN/A
11:20 AM39 °FScattered clouds.5 mph81%30.42 "HgN/A
10:50 AM37 °FScattered clouds.5 mph93%30.45 "HgN/A
10:20 AM37 °FScattered clouds.5 mph93%30.42 "Hg6 mi
9:50 AM36 °FPassing clouds.3 mph93%30.45 "HgN/A
9:20 AM36 °FPassing clouds.5 mph93%30.42 "Hg6 mi
8:50 AM36 °FScattered clouds.5 mph93%30.42 "Hg6 mi
8:20 AM37 °FScattered clouds.6 mph87%30.42 "HgN/A
7:50 AM39 °FLight rain. Passing clouds.5 mph87%30.42 "HgN/A
7:20 AM39 °FPassing clouds.5 mph81%30.42 "HgN/A
6:50 AM39 °FPassing clouds.5 mph81%30.42 "HgN/A
6:20 AM39 °FPassing clouds.5 mph81%30.39 "HgN/A
5:50 AM39 °FLight rain. Passing clouds.6 mph81%30.39 "HgN/A
5:20 AM39 °FLight rain. Partly cloudy.5 mph87%30.39 "HgN/A
4:50 AM39 °FPartly cloudy.5 mph81%30.39 "HgN/A
Weather by CustomWeather, © 2014

See weather overviewHow to use our weather pages